{"data":{"norad_id":64079,"epoch":"2026-09-20T03:32:25.720224Z","epoch_age_seconds":173973,"freshness":"STALE","line1":"1 64079U 25107R   26263.14751991  .00009063  00000+0  33837-3 0  9991","line2":"2 64079  42.9979 183.0555 0001232 269.1165  90.9545 15.27589141 75864","mean_motion":15.27589141,"eccentricity":0.0001232,"inclination_deg":42.9979,"raan_deg":183.0555,"arg_perigee_deg":269.1165,"mean_anomaly_deg":90.9545,"bstar":0.00033837,"rev_number":7586,"period_min":94.266184627192,"perigee_km":482.1764299788,"apogee_km":483.86701948857,"semimajor_km":6861.1587247337,"source":"CELESTRAK","updated_at":"2026-09-21T09:00:35.194880Z"}}